Regional Weather Roundup
Issued by NWS Upton, NY

Current Version | Previous Version | Graphics & Text | Print | Product List | Glossary Off
Versions: 1 2 3 4 5 6 7 8 9 10 11 12 13 14 15 16 17 18 19 20 21 22 23 24 25 26 27 28 29 30 31 32 33 34 35 36 37 38 39 40 41 42 43 44 45 46 47 48 49 50

000
ASUS41 KOKX 221408
RWROKX

REGIONAL WEATHER ROUNDUP
NATIONAL WEATHER SERVICE NEW YORK NY
1000 AM EDT SUN OCT 22 2017

NOTE: "FAIR" INDICATES FEW OR NO CLOUDS BELOW 12,000 FEET WITH NO
SIGNIFICANT WEATHER AND/OR OBSTRUCTIONS TO VISIBILITY.

NYZ071-072-176-178-NJZ106-104-221500-
NEW YORK CITY METRO AREA

CITY           SKY/WX    TMP DP  RH WIND       PRES   REMARKS
Central Park   MOSUNNY   65  48  54 CALM      30.43F
Bronx Bot Gard   N/A     68  48  49 SE2       30.41F
LaGuardia APRT PTSUNNY   66  53  63 VRB3      30.41S
Kennedy INTL   PTSUNNY   65  57  75 S3        30.43R
Breezy Point     N/A     61 N/A N/A W5          N/A
Newark/Liberty PTSUNNY   62  47  57 CALM      30.41F
Teterboro      MOSUNNY   61  46  57 CALM      30.40F
$$

NYZ177-179-078>081-221500-
LONG ISLAND NEW YORK

CITY           SKY/WX    TMP DP  RH WIND       PRES   REMARKS
Jones Beach      N/A     64 N/A N/A W3          N/A
Matinecock PT    N/A     63 N/A N/A CALM        N/A
Farmingdale    MOSUNNY   64  55  72 CALM      30.42S
MacArthur/ISP  PTSUNNY   66  53  63 W3        30.42S
Shirley        SUNNY     67  54  63 VRB3      30.43R
Mt Sinai Harb    N/A    N/A N/A N/A MISG        N/A
Westhampton    MOSUNNY   66  54  65 CALM      30.44R
East Hampton   FAIR      65  57  77 SE3       30.42S
Montauk          N/A     67  58  72 CALM      30.43R
$$

NYZ052-065-067-221500-
HUDSON VALLEY

CITY           SKY/WX    TMP DP  RH WIND       PRES   REMARKS
White Plains   MOSUNNY   68  45  43 SE6       30.41S
Larchmont Harb   N/A     63 N/A N/A MISG        N/A
Croton On Huds   N/A     61 N/A N/A MISG        N/A
Newburgh       MOSUNNY   59  48  67 CALM      30.42S
Montgomery     CLOUDY    56  49  77 CALM      30.40F
Poughkeepsie   CLOUDY    54  47  77 CALM      30.40F
Albany         MOSUNNY   51  46  83 CALM      30.41F
$$

NJZ001-105-106-008-010-013-015-019>022-104-221500-
NEW JERSEY

CITY           SKY/WX    TMP DP  RH WIND       PRES   REMARKS
Newark/Liberty PTSUNNY   62  47  57 CALM      30.41F
Teterboro      MOSUNNY   61  46  57 CALM      30.40F
Caldwell       MOSUNNY   56  49  77 CALM      30.42F
Somerville     SUNNY     56  50  80 CALM      30.40F
Linden         FAIR      61  48  62 CALM      30.42S
Perth Amboy      N/A     57 N/A N/A CALM        N/A
Sussex         MOSUNNY   51  49  92 CALM      30.41F
Andover          N/A     56  52  86 CALM      30.41F
Trenton        SUNNY     60  50  69 SE3       30.41F
Millville      MOSUNNY   61  59  93 CALM      30.42S
Atlantic City  FOG       59  59 100 CALM      30.42S VSB 1/4
Wrightstown    PTSUNNY   54  53  99 CALM      30.40S
Toms River       N/A     60  59  96 CALM      30.43S
Belmar         MOSUNNY   62  55  77 CALM      30.43S
$$

PAZ047>061-062-071-221500-
EASTERN PENNSYLVANIA

CITY           SKY/WX    TMP DP  RH WIND       PRES   REMARKS
Philadelphia   PTSUNNY   56  54  93 CALM      30.42F
Allentown      SUNNY     56  47  71 CALM      30.41F
Scranton       SUNNY     58  46  64 CALM      30.39F
$$

CTZ002-004>006-009-010-012-RIZ004-006-007-MAZ004-011-015-221500-
SOUTHERN NEW ENGLAND
 IN CT

CITY           SKY/WX    TMP DP  RH WIND       PRES   REMARKS
Bradley INTL   PTSUNNY   53  46  77 NE3       30.43R
Hartford       MOSUNNY   55  49  80 CALM      30.43S
Danbury        CLOUDY    57  49  74 CALM      30.43F
Wtrbury/Oxford MOSUNNY   63  51  65 CALM      30.43S
Norwalk Harbor   N/A     57 N/A N/A NE2         N/A
Bridgeport     SUNNY     61  49  64 NE3       30.42S
Meriden        MOSUNNY   56  49  77 CALM      30.43S
New Haven      SUNNY     61  48  62 N3        30.42S
Chester        FAIR      70  48  46 CALM      30.42S
Groton         MOSUNNY   63  53  70 CALM      30.42R
Wilimantic     MOSUNNY   55  48  77 CALM      30.43S

 IN RI

CITY           SKY/WX    TMP DP  RH WIND       PRES   REMARKS
Providence     MOSUNNY   63  52  67 N3        30.42S
Block Island   MOSUNNY   66  60  81 W6        30.43R
Westerly       MOSUNNY   61  52  72 CALM      30.43R
 IN MA

CITY           SKY/WX    TMP DP  RH WIND       PRES   REMARKS
Boston         MOSUNNY   66  48  52 NE6       30.41S
Worcester      MOSUNNY   70  42  36 CALM      30.42S
Westfield      MOSUNNY   54  47  77 CALM      30.42F
Provincetown   MOSUNNY   64  53  67 W3        30.42R
Nantucket      MOSUNNY   64  62  93 SW8       30.42R
$$

ANZ330-335-338-340-345-350-353-355-221500-
COASTAL MARINE OBSERVATIONS


STATION/POSITION TIME  SKY/WX   TEMP    WIND        PRES    VSBY  WAVE
                                AIR SEA DIR/SP/G                  HT/PER
                 (UTC)          (F)     (DEG/KT/KT) (MB)    (MI)  (FT/S)
NY HARB ENTRANCE 1350            64 65  220/  4/  4 1029.4          2/ 9
20 S FIRE ISLAND 1250            64 64  220/  4/  4 1029.9          2/ 8
GREAT SOUTH BAY  1330            64 62   50/  2/  2   N/A
15 E BARNEGAT LI NOT AVBL
HUDSON CANYON    1250            65 64  170/  2/  2 1029.7          2/ 9
KINGS POINT      1336            60 65  230/  2/  3 1030.6
EXECUTION ROCKS  1315            65     240/  2/  4   N/A
WESTERN LI SOUND 1249            61     360/  2/  2   N/A           0
CENTRAL LI SOUND NOT AVBL
EASTERN LI SOUND NOT AVBL
ROBBINS REEF     1348            59     300/  2/  2 1030.5
$$


>>>>>>>>>>>>>>>>>>>>>>>>>>>> KEY <<<<<<<<<<<<<<<<<<<<<<<<<<<
>                                                          <
>     SKY/WX - Sky Condition/Present Weather               <
>     TMP    - Temperature in Fahrenheit                   <
>     DP     - Dew Point in Fahrenheit                     <
>     RH     - Relative Humidity in Percent                <
>     WIND   - Direction (from) and Speed in MPH           <
>     PRES   - Mean Sea Level Pressure (inches of Hg)      <
>     WCI    - Wind Chill Index                            <
>     VSB    - VISIBILITY IN MILES                         <
>     HX     - HEAT INDEX                                  <
>     TC     - TEMPERATURE IN CELSIUS                      <
>     VRB    - VARIABLE WIND DIRECTION                     <
>                                                          <
>>>>>>>>>>>>>>>>>>>>>>>>>>>> KEY <<<<<<<<<<<<<<<<<<<<<<<<<<<



USA.gov is the U.S. government's official web portal to all federal, state and local government web resources and services.